New Orleans, LA

9:18 AM CST on February 09, 2016 (GMT -0600)
New Orleans Naval Air Station

Weather History for KNBG - October, 2012

Change the Weather History Date:

Wednesday, October 10, 2012

  Actual Average Record
Temperature  
Mean Temperature 78 °F -  
Max Temperature 99 °F 77 °F 99 °F (2012)
Min Temperature 66 °F 62 °F 46 °F (2000)
Cooling Degree Days 14    
Growing Degree Days 28 (Base 50)    
Moisture  
Dew Point 62 °F    
Average Humidity 65    
Maximum Humidity 86    
Minimum Humidity 35    
Precipitation  
Precipitation 0.00 in - - ()
Sea Level Pressure  
Sea Level Pressure 30.14 in    
Wind  
Wind Speed 2 mph (NE)    
Max Wind Speed 7 mph    
Max Gust Speed -    
Visibility 9 miles    
Events Fog    
Averages and records for this station are not official NWS values.
T = Trace of Precipitation, MM = Missing Value Source: NWS Daily Summary

Daily Weather History Graph

Daily Weather History Graph

Search for Another Location

Airport or City:

Trip Planner

Search our weather history database for the weather conditions in past years. The results will help you decide how hot, cold, wet, or windy it might be!

Date:

Astronomy

Oct. 10, 2012 Rise Set
Actual Time 6:59 AM CDT 6:34 PM CDT
Civil Twilight 6:35 AM CDT 6:58 PM CDT
Nautical Twilight 6:07 AM CDT 7:26 PM CDT
Astronomical Twilight 5:39 AM CDT 7:53 PM CDT
Moon 1:57 AM CDT (10/10) 3:17 PM CDT (10/10)
Length of Visible Light 12h 23m
Length of Day
11h 35m
Waning Crescent, 27% of the Moon is Illuminated
Oct 10
Waning Crescent
Oct 15
New
Oct 21
First Quarter
Oct 29
Full
Nov 6
Last Quarter

Hourly Weather History & Observations

Time (CDT) Temp. Heat Index Dew Point Humidity Pressure Visibility Wind Dir Wind Speed Gust Speed Precip Events Conditions
3:55 AM 69.1 °F - 62.1 °F 78% 30.11 in 6.0 mi NNW 3.5 mph - N/A   Haze
6:08 AM 66.2 °F - 60.8 °F 83% 30.13 in 7.0 mi Calm Calm - N/A Fog Shallow Fog
6:55 AM 66.0 °F - 59.0 °F 78% 30.14 in 4.0 mi Calm Calm - N/A   Haze
7:55 AM 67.3 °F - 63.0 °F 86% 30.15 in 7.0 mi Calm Calm - N/A   Partly Cloudy
8:55 AM 69.8 °F - 64.9 °F 84% 30.16 in 10.0 mi East 5.8 mph - N/A   Partly Cloudy
9:55 AM 76.3 °F - 66.0 °F 70% 30.18 in 10.0 mi Calm Calm - N/A   Scattered Clouds
10:55 AM 77.5 °F - 64.0 °F 63% 30.18 in 10.0 mi Variable 4.6 mph - N/A   Scattered Clouds
11:55 AM 91.9 °F 91.8 °F 61.0 °F 35% 30.17 in 10.0 mi Calm Calm - N/A   Scattered Clouds
12:55 PM 81.3 °F 82.1 °F 61.0 °F 50% 30.14 in 10.0 mi Calm Calm - N/A   Scattered Clouds
1:55 PM 81.1 °F 81.9 °F 61.0 °F 50% 30.11 in 10.0 mi NE 6.9 mph - N/A   Partly Cloudy
2:55 PM 82.0 °F 82.1 °F 59.0 °F 45% 30.10 in 10.0 mi ENE 5.8 mph - N/A   Partly Cloudy
3:55 PM 81.1 °F 81.8 °F 60.1 °F 49% 30.09 in 10.0 mi North 4.6 mph - N/A   Partly Cloudy
4:55 PM 81.1 °F 81.9 °F 61.0 °F 50% 30.09 in 10.0 mi NE 4.6 mph - N/A   Partly Cloudy
5:55 PM 79.7 °F - 61.0 °F 53% 30.09 in 10.0 mi NE 3.5 mph - N/A   Partly Cloudy
6:55 PM 77.0 °F - 64.0 °F 64% 30.12 in 10.0 mi Calm Calm - N/A   Scattered Clouds
7:55 PM 73.9 °F - 63.0 °F 68% 30.12 in 10.0 mi Calm Calm - N/A   Clear
8:55 PM 73.0 °F - 63.0 °F 71% 30.15 in 10.0 mi Calm Calm - N/A   Clear
9:55 PM 73.0 °F - 63.0 °F 71% 30.17 in 10.0 mi Calm Calm - N/A   Clear
10:55 PM 70.0 °F - 62.1 °F 76% 30.17 in 10.0 mi Calm Calm - N/A   Clear
11:55 PM 69.1 °F - 62.1 °F 78% 30.17 in 10.0 mi Calm Calm - N/A   Clear